Location: ??????
(56.0120°N, 39.1740°E)
Time: 00:47:33
(UTC+00:00)

Cosmos 2219 Rocket - Pass Details

Date: 14 April 2026
Orbit: 826 x 846 km, 71.0° (Epoch: 20 May)

Event Time Altitude Azimuth Distance (km) Brightness Sun altitude
Rises 18:27:14 0° 242° (WSW) 3,362 5.6 -14.9°
Reaches altitude 10° 18:29:49 10° 250° (WSW) 2,432 4.9 -15.2°
Maximum altitude 18:35:03 40° 320° (NW) 1,208 3.6 -15.7°
Drops below altitude 10° 18:40:19 10° 29° (NNE) 2,450 4.8 -16.2°
Sets 18:42:56 0° 37° (NE) 3,390 5.5 -16.4°
